SCP
0 0 0 0 0 0 0 0 0 0 0 0 0 0 0 0 0 0 0 0 0 0 0 0 0 0 0 0 0 0 0 0 0 0 0 0 0 -0 0 0 0 0 0 0 0
0 0 0 0 0 0 0 0 0 0 0 0 0 0 0 0 0 -0 0 0 0 0 0 0 0 0 0 0 0 0 0 0 0 0 0 0 0 0 0 0 0 0 0 0 0
0 0 0 0 0 0 0 0 0 0 0 0 0 0 0 0 -0 -0 0 -0 0 0 0 0 0 0 0 0 0 0 0 0 0 0 0 0 0 0 0 0 0 0 0 0 0
0 0 0 0 0 0 0 0 0 0 0 0 0 0 0 0 0 0 0 0 0 0 0 0 0 0 0 0 0 0 0 0 0 0 0 0 0 0 0 0 0 0 0 0 0
0 0 0 0 0 0 0 0 0 0 0 0 0 0 0 0 0 0 0 0 0 0 0 0 0 0 0 0 0 0 0 0 0 0 0 0 0 0 0 0 0 0 0 0 0
0 0 0 0 0 0 0 0 0 0 0 0 0 0 0 0 0 0 0 0 0 0 0 0 0 0 0 0 0 0 0 0 0 0 0 0 0 0 0 0 0 0 0 0 0
-0 0 0 0 0 0 0 0 0 0 0 0 0 0 0 0 0 0 0 0 0 0 0 0 0 0 0 0 0 0 0 0 0 0 0 0 0 0 0 0 0 0 0 0 0
-0 -0 -0 -0 0 0 0 0 0 0 0 0 0 0 0 0 0 0 0 0 0 0 0 0 0 0 0 0 0 0 0 0 0 0 0 0 0 0 0 0 0 0 0 0 0
-0 -0 -0 -0 -0 -0 0 0 0 -0 -0 0 0 0 0 0 0 0 0 0 0 0 0 0 0 0 0 0 0 0 0 0 0 0 0 0 0 0 0 0 0 0 0 0 0
-0 -0 -0 -0 -0 0 -0 0 0 -0 -0 -0 0 0 0 0 0 -0 0 -0 0 0 0 0 0 0 0 0 0 0 0 0 0 0 0 0 0 0 -0 0 0 0 0 0 0
-0 -0 0 0 -0 -0 0 0 -0 0 -0 0 -0 0 -0 0 0 0 0 0 0 0 0 0 0 0 0 0 0 0 0 0 0 0 0 0 0 -0 0 0 0 0 0 0 0
-0 -0 -0 -0 -0 -0 0 0 0 -0 -0 0 0 0 0 -0 0 0 0 0 0 0 0 0 0 0 0 0 0 0 0 0 0 0 0 0 0 0 0 0 0 0 0 0 0
-0 -0 -0 -0 -0 0 0 0 0 0 -0 0 0 -0 0 0 0 0 -0 0 0 0 0 0 0 0 0 0 0 0 0 0 0 0 0 0 0 -0 -0 0 0 0 0 0 0
-0 -0 -0 -0 0 0 0 0 0 0 -0 -0 -0 0 0 -0 -0 -0 0 -0 0 0 0 0 0 0 0 0 0 0 0 0 0 0 0 0 0 0 -0 -0 -0 -0 0 0 0
0 0 -0 0 0 0 0 -0 -0 0 0 0 0 0 -0 -0 0 0 0 0 0 0 0 0 0 0 0 0 0 0 0 0 0 0 0 0 0 0 0 0 0 0 0 0 0
0 0 -0 0 0 0 0 0 0 -0 -0 -0 -0 -0 0 -0 0 0 0 0 0 0 0 0 0 0 0 0 0 0 0 0 0 0 0 0 0 0 0 -0 0 0 -0 -0 0
0 0 -0 0 0 0 0 0 0 0 -0 -0 -0 -0 0 -0 -0 0 0 0 0 0 0 0 0 0 0 0 0 0 0 0 0 0 0 0 0 0 -0 0 -0 0 0 -0 0
0 0 0 0 0 0 0 0 0 0 0 0 0 -0 -0 0 0 0 -0 -0 -0 -0 0 0 0 0 0 0 0 0 0 0 0 0 0 0 0 -0 -0 0 -0 -0 0 0 0
0 0 0 0 0 0 0 0 0 0 0 -0 0 0 0 0 -0 0 0 0 0 0 0 0 0 0 0 0 0 0 0 0 0 0 0 0 0 0 0 -0 0 0 0 0 -0
0 0 0 0 0 0 0 0 0 0 0 0 -0 0 0 -0 -0 -0 0 0 0 0 -0 0 0 -0 0 0 0 0 0 0 0 0 0 0 0 0 0 -0 -0 0 0 0 -0
0 0 0 0 0 0 0 0 0 -0 0 0 0 0 -0 -0 -0 0 0 0 0 0 0 0 0 0 -0 -0 0 0 0 0 0 0 0 0 0 -0 0 0 0 0 -0 -0 0
0 0 0 0 0 0 0 0 0 0 -0 -0 -0 -0 -0 -0 -0 0 0 -0 -0 0 0 0 0 -0 -0 0 0 0 0 0 0 0 0 0 0 -0 0 0 0 -0 -0 0 -0
0 0 0 0 0 0 0 0 0 -0 0 -0 0 -0 -0 -0 -0 0 -0 -0 0 0 0 0 0 0 0 0 -0 0 0 0 0 0 0 0 -0 -0 0 0 0 0 0 0 -0
0 0 0 0 0 0 0 0 0 0 0 -0 0 -0 -0 -0 0 -0 0 0 0 -0 -0 0 0 0 0 0 0 0 0 0 0 0 0 0 -0 -0 -0 0 0 0 0 -0 0
0 0 0 0 0 0 0 0 0 0 0 0 0 0 -0 -0 0 0 0 -0 -0 0 0 0 -0 0 0 0 0 0 0 0 0 0 0 0 -0 0 0 0 0 0 0 -0 -0
0 0 0 0 0 0 0 0 0 0 -0 0 -0 0 -0 -0 -0 -0 -0 -0 -0 -0 -0 0 0 0 0 0 -0 0 0 0 0 0 0 -0 0 0 -0 0 0 0 -0 -0 -0
0 0 0 0 0 0 0 0 0 0 0 0 -0 -0 0 -0 -0 -0 -0 -0 -0 0 -0 -0 0 0 0 -0 -0 0 0 0 0 0 0 -0 0 0 1 1 0 0 0 0 0
Wind_Speed_500mb
35 36 37 36 35 36 37 36 37 36 31 30 29 33 39 49 59 54 62 59 41 37 37 22 16 28 35 37 37 37 6 12 24 23 31 56 26 44 28 22 28 16 22 32 38
33 35 37 38 39 39 38 40 40 39 40 37 33 32 33 43 53 68 64 63 55 43 39 46 38 30 44 36 33 33 16 29 26 28 33 40 31 54 45 28 15 39 36 30 42
35 35 36 38 40 41 41 39 38 39 38 39 38 35 30 35 46 35 27 41 48 49 52 46 41 43 53 53 49 47 43 31 39 55 60 45 45 57 42 28 35 21 23 47 61
34 36 38 39 40 41 41 42 43 39 38 40 39 38 32 25 12 10 2 20 22 44 48 51 46 50 20 37 58 38 56 54 52 64 65 45 61 51 56 47 61 61 72 64 48
37 39 41 42 43 42 40 39 39 42 44 42 40 40 37 22 51 25 29 25 26 22 56 47 49 41 28 20 45 51 41 55 63 67 73 73 59 54 63 75 81 76 74 80 72
42 44 46 46 46 45 45 43 41 39 41 46 48 43 32 34 31 27 25 39 47 20 32 45 43 49 36 33 41 47 47 58 60 68 70 55 56 62 65 69 66 65 60 66 67
40 41 42 43 44 47 48 48 44 42 46 40 39 38 41 66 45 37 45 38 31 41 40 45 47 41 15 27 66 56 39 38 50 58 51 58 55 65 69 67 69 70 77 82 74
44 46 48 47 49 54 52 48 41 37 40 37 37 27 28 47 29 34 36 41 38 40 42 40 44 39 26 36 45 35 26 42 42 40 59 42 81 40 64 70 63 81 89 85 75
52 56 59 60 58 59 55 49 39 25 35 35 37 18 26 22 31 16 16 51 42 42 42 39 38 40 30 11 15 26 40 45 49 46 35 26 60 42 67 63 74 87 88 88 87
57 59 59 57 57 55 46 42 37 28 20 14 23 18 33 17 7 14 9 18 23 34 41 49 36 20 19 23 36 23 43 47 57 26 34 46 58 63 90 68 70 77 71 71 69
56 59 66 59 52 29 46 54 53 21 15 41 53 41 61 42 38 26 13 16 15 24 17 32 16 42 75 42 31 25 44 44 33 37 36 46 45 54 48 37 39 60 59 67 75
57 62 59 53 43 25 33 39 39 43 46 69 71 83 82 78 74 67 52 52 30 16 16 18 46 54 30 32 37 42 45 45 28 27 29 42 35 48 44 37 61 66 67 68 67
55 57 55 41 29 26 37 41 45 52 21 56 53 47 62 61 63 65 64 57 32 28 26 32 31 31 42 40 41 49 51 37 41 24 43 31 31 40 39 31 45 53 53 59 47
52 56 45 41 19 29 34 48 45 41 8 21 47 29 47 28 48 66 74 61 35 36 30 30 36 42 42 51 41 46 34 46 42 25 37 14 37 49 32 33 32 46 64 72 66
50 51 33 24 34 26 42 47 40 18 8 28 17 17 39 28 30 31 41 30 32 31 24 47 28 21 40 44 37 50 28 37 28 34 32 34 20 52 23 24 13 20 47 53 49
43 36 31 23 28 46 51 33 25 4 7 18 12 24 27 21 16 23 17 36 19 26 26 32 43 37 39 34 40 35 33 37 29 24 22 41 30 59 32 28 19 20 48 53 59
37 23 18 17 25 37 35 28 3 2 30 18 37 35 34 40 34 30 25 33 15 15 23 26 35 32 40 34 37 29 23 14 19 20 34 27 25 44 12 27 37 28 42 52 48
34 14 16 13 17 31 32 4 6 14 33 44 35 22 19 33 27 29 28 25 28 22 11 18 19 18 20 36 22 25 28 19 27 25 33 25 20 21 35 32 64 59 52 18 38
27 9 9 6 15 20 20 4 10 20 27 35 40 23 21 33 8 19 26 17 19 10 3 6 13 24 33 36 31 41 34 35 34 21 13 13 28 44 54 45 30 16 18 57 65
38 25 15 21 19 14 4 8 17 32 47 28 31 25 19 32 18 21 9 16 19 4 12 7 18 20 35 30 28 20 24 12 23 27 28 13 19 22 20 39 35 19 23 55 70
20 11 13 14 8 4 0 8 40 47 59 1 13 29 19 21 19 25 14 20 23 25 28 15 8 27 21 8 18 20 28 21 12 20 24 11 19 31 32 28 27 21 54 67 71
14 7 12 13 6 4 5 30 48 45 53 25 22 23 5 26 23 15 25 4 8 9 21 8 6 14 24 32 32 29 40 32 18 27 20 9 17 4 8 18 24 38 60 69 77
32 18 18 5 3 4 19 27 36 37 25 24 21 26 24 18 9 19 16 19 24 11 7 5 6 9 12 14 18 16 25 26 11 12 40 20 26 13 21 13 24 36 59 66 77
15 7 17 25 28 19 19 18 30 29 30 34 28 27 15 14 14 13 8 15 25 24 22 6 7 14 14 28 21 22 39 32 24 20 15 36 38 20 35 14 34 49 64 70 71
7 10 27 9 23 30 24 18 28 33 25 35 11 20 28 24 32 26 23 14 22 15 6 7 11 16 29 39 21 26 39 39 35 29 23 23 21 25 17 30 37 59 62 64 66
16 14 23 40 38 33 8 5 22 29 30 20 25 28 25 26 34 27 30 26 16 7 10 10 7 15 29 36 19 28 41 39 37 42 30 40 30 19 21 41 33 53 62 61 65
19 21 20 17 23 20 21 25 18 37 10 42 39 22 24 33 47 51 50 45 32 28 13 14 10 9 11 10 14 10 34 42 29 34 35 39 19 12 18 16 18 47 55 62 64
Wind_Direction_500mb
337 335 333 332 328 327 326 324 322 322 317 310 308 310 306 293 282 277 268 263 258 245 235 234 245 218 197 229 227 232 229 254 252 253 264 297 312 326 309 303 302 315 319 319 308
338 336 334 333 332 330 326 322 321 316 315 313 310 306 304 303 289 279 273 271 261 240 237 225 228 233 226 222 218 225 225 228 243 259 274 289 309 293 305 308 315 296 306 290 299
351 347 344 339 336 335 332 328 323 319 314 310 308 305 305 306 307 287 282 272 254 236 232 235 236 236 231 231 222 229 239 242 253 258 271 283 292 295 296 295 287 293 233 280 269
352 349 346 343 339 336 333 331 328 324 318 314 310 304 299 296 257 161 117 332 317 227 222 227 231 255 258 229 230 240 236 238 249 256 269 274 282 284 286 282 295 297 295 292 277
354 352 349 346 343 339 333 328 324 321 319 315 310 307 304 259 241 222 306 315 325 226 212 219 230 240 252 263 235 235 243 244 247 249 254 264 265 266 269 279 284 283 287 288 289
356 351 347 345 341 336 330 325 322 316 312 310 307 302 293 260 278 242 258 261 262 245 223 221 231 236 272 258 251 262 251 246 245 248 254 257 263 265 260 266 281 283 285 291 285
354 350 346 343 339 334 327 319 314 309 307 307 301 292 268 257 284 254 231 231 204 222 240 235 240 226 211 250 258 266 272 277 255 245 250 263 271 259 272 277 281 282 289 286 276
353 349 345 343 341 337 328 320 311 297 292 299 302 278 256 313 309 277 235 249 240 231 241 237 249 275 268 264 263 264 275 258 258 258 256 255 262 270 270 273 279 282 276 273 269
353 349 344 343 337 337 332 331 334 297 279 290 294 268 267 326 266 304 261 242 242 244 256 254 259 265 278 255 262 231 238 250 255 241 247 237 267 269 269 262 258 259 262 264 264
350 346 342 341 336 337 344 352 356 304 307 291 288 271 267 243 309 258 260 228 238 244 251 230 232 234 237 225 220 216 223 234 246 242 237 238 250 263 264 261 256 261 259 257 264
343 343 346 344 340 347 351 1 9 358 344 293 277 229 273 274 304 289 236 258 267 232 226 248 218 219 222 220 239 260 236 245 247 237 257 254 260 269 265 258 264 275 268 273 258
345 348 341 341 342 357 348 341 353 320 296 285 275 270 264 266 279 280 277 284 268 237 224 233 229 231 242 236 235 246 264 261 271 249 251 257 254 255 253 256 253 253 255 264 266
345 344 339 350 349 359 343 345 337 334 309 302 291 262 268 243 253 258 253 250 248 251 244 233 247 228 238 232 237 229 240 254 258 287 284 298 292 278 281 274 264 256 260 264 250
346 344 342 353 14 359 352 337 333 339 308 319 352 1 343 238 252 260 255 232 226 239 244 260 255 241 250 230 233 242 233 239 254 252 257 248 271 265 269 266 261 267 267 265 263
348 343 354 351 337 347 330 332 329 345 311 338 288 344 338 4 330 329 289 233 223 226 217 242 274 257 250 249 227 250 236 251 241 241 258 252 262 267 211 238 270 267 255 259 264
348 346 357 13 355 345 325 339 321 38 311 303 315 327 335 334 330 308 330 306 241 229 254 262 247 252 264 275 240 262 242 251 259 258 260 238 233 266 243 248 243 257 265 269 269
344 347 354 347 353 326 6 359 359 75 302 350 351 360 355 358 333 329 286 234 283 227 233 254 267 248 251 266 269 258 225 245 237 233 239 218 235 239 259 222 239 245 255 270 266
338 322 347 331 354 333 353 357 11 328 334 330 340 13 355 4 334 327 322 316 189 236 300 268 276 272 257 234 263 252 230 217 214 219 251 262 243 238 242 245 243 254 258 210 137
338 344 316 333 312 351 6 351 346 348 284 331 327 335 339 354 339 353 335 322 305 87 319 14 257 282 302 302 231 252 251 230 252 279 245 244 236 264 259 257 252 220 180 129 131
328 313 272 237 329 18 51 256 302 328 343 14 323 330 349 326 333 353 320 283 333 113 177 297 290 274 286 313 301 258 251 241 221 234 255 243 243 253 274 249 228 192 136 133 136
336 288 185 264 5 324 127 269 317 344 317 211 273 329 339 337 331 322 270 329 9 337 348 345 263 272 290 246 272 290 242 243 278 210 235 254 268 254 245 213 193 157 142 137 139
10 297 225 329 248 182 273 316 317 325 350 335 323 333 358 284 312 316 341 240 303 296 306 32 292 290 285 276 268 272 283 239 225 228 238 215 265 249 109 146 135 144 143 141 146
337 282 261 293 287 277 294 329 324 335 325 312 338 318 1 335 342 315 327 237 247 272 275 35 308 302 285 232 226 248 268 247 236 241 223 237 242 304 295 158 137 141 138 138 142
334 317 354 323 351 336 329 313 323 317 322 341 321 317 309 302 287 261 268 305 232 269 284 151 257 250 277 301 312 291 316 325 262 237 229 227 259 282 270 209 131 138 140 143 145
322 336 3 319 329 308 321 286 316 327 338 325 302 323 318 315 303 301 314 278 264 155 103 130 257 252 274 283 279 266 284 299 304 261 230 233 263 224 268 140 138 140 139 143 142
340 339 325 299 308 305 48 293 303 318 329 312 317 332 330 294 292 320 308 304 285 203 160 203 256 268 286 275 194 251 268 281 278 281 267 247 245 289 258 130 132 142 142 144 149
321 322 320 285 308 323 327 346 298 309 306 315 310 342 302 297 310 301 289 276 270 267 251 201 237 323 289 182 163 298 256 264 261 274 276 243 196 228 96 73 139 140 145 149 153
Wind_Speed_850mb
35 36 37 36 35 36 37 36 37 36 31 30 29 33 39 49 59 54 62 59 41 37 37 22 16 28 35 37 37 37 6 12 24 23 31 56 26 44 28 22 28 16 22 32 38
33 35 37 38 39 39 38 40 40 39 40 37 33 32 33 43 53 68 64 63 55 43 39 46 38 30 44 36 33 33 16 29 26 28 33 40 31 54 45 28 15 39 36 30 42
35 35 36 38 40 41 41 39 38 39 38 39 38 35 30 35 46 35 27 41 48 49 52 46 41 43 53 53 49 47 43 31 39 55 60 45 45 57 42 28 35 21 23 47 61
34 36 38 39 40 41 41 42 43 39 38 40 39 38 32 25 12 10 2 20 22 44 48 51 46 50 20 37 58 38 56 54 52 64 65 45 61 51 56 47 61 61 72 64 48
37 39 41 42 43 42 40 39 39 42 44 42 40 40 37 22 51 25 29 25 26 22 56 47 49 41 28 20 45 51 41 55 63 67 73 73 59 54 63 75 81 76 74 80 72
42 44 46 46 46 45 45 43 41 39 41 46 48 43 32 34 31 27 25 39 47 20 32 45 43 49 36 33 41 47 47 58 60 68 70 55 56 62 65 69 66 65 60 66 67
40 41 42 43 44 47 48 48 44 42 46 40 39 38 41 66 45 37 45 38 31 41 40 45 47 41 15 27 66 56 39 38 50 58 51 58 55 65 69 67 69 70 77 82 74
44 46 48 47 49 54 52 48 41 37 40 37 37 27 28 47 29 34 36 41 38 40 42 40 44 39 26 36 45 35 26 42 42 40 59 42 81 40 64 70 63 81 89 85 75
52 56 59 60 58 59 55 49 39 25 35 35 37 18 26 22 31 16 16 51 42 42 42 39 38 40 30 11 15 26 40 45 49 46 35 26 60 42 67 63 74 87 88 88 87
57 59 59 57 57 55 46 42 37 28 20 14 23 18 33 17 7 14 9 18 23 34 41 49 36 20 19 23 36 23 43 47 57 26 34 46 58 63 90 68 70 77 71 71 69
56 59 66 59 52 29 46 54 53 21 15 41 53 41 61 42 38 26 13 16 15 24 17 32 16 42 75 42 31 25 44 44 33 37 36 46 45 54 48 37 39 60 59 67 75
57 62 59 53 43 25 33 39 39 43 46 69 71 83 82 78 74 67 52 52 30 16 16 18 46 54 30 32 37 42 45 45 28 27 29 42 35 48 44 37 61 66 67 68 67
55 57 55 41 29 26 37 41 45 52 21 56 53 47 62 61 63 65 64 57 32 28 26 32 31 31 42 40 41 49 51 37 41 24 43 31 31 40 39 31 45 53 53 59 47
52 56 45 41 19 29 34 48 45 41 8 21 47 29 47 28 48 66 74 61 35 36 30 30 36 42 42 51 41 46 34 46 42 25 37 14 37 49 32 33 32 46 64 72 66
50 51 33 24 34 26 42 47 40 18 8 28 17 17 39 28 30 31 41 30 32 31 24 47 28 21 40 44 37 50 28 37 28 34 32 34 20 52 23 24 13 20 47 53 49
43 36 31 23 28 46 51 33 25 4 7 18 12 24 27 21 16 23 17 36 19 26 26 32 43 37 39 34 40 35 33 37 29 24 22 41 30 59 32 28 19 20 48 53 59
37 23 18 17 25 37 35 28 3 2 30 18 37 35 34 40 34 30 25 33 15 15 23 26 35 32 40 34 37 29 23 14 19 20 34 27 25 44 12 27 37 28 42 52 48
34 14 16 13 17 31 32 4 6 14 33 44 35 22 19 33 27 29 28 25 28 22 11 18 19 18 20 36 22 25 28 19 27 25 33 25 20 21 35 32 64 59 52 18 38
27 9 9 6 15 20 20 4 10 20 27 35 40 23 21 33 8 19 26 17 19 10 3 6 13 24 33 36 31 41 34 35 34 21 13 13 28 44 54 45 30 16 18 57 65
38 25 15 21 19 14 4 8 17 32 47 28 31 25 19 32 18 21 9 16 19 4 12 7 18 20 35 30 28 20 24 12 23 27 28 13 19 22 20 39 35 19 23 55 70
20 11 13 14 8 4 0 8 40 47 59 1 13 29 19 21 19 25 14 20 23 25 28 15 8 27 21 8 18 20 28 21 12 20 24 11 19 31 32 28 27 21 54 67 71
14 7 12 13 6 4 5 30 48 45 53 25 22 23 5 26 23 15 25 4 8 9 21 8 6 14 24 32 32 29 40 32 18 27 20 9 17 4 8 18 24 38 60 69 77
32 18 18 5 3 4 19 27 36 37 25 24 21 26 24 18 9 19 16 19 24 11 7 5 6 9 12 14 18 16 25 26 11 12 40 20 26 13 21 13 24 36 59 66 77
15 7 17 25 28 19 19 18 30 29 30 34 28 27 15 14 14 13 8 15 25 24 22 6 7 14 14 28 21 22 39 32 24 20 15 36 38 20 35 14 34 49 64 70 71
7 10 27 9 23 30 24 18 28 33 25 35 11 20 28 24 32 26 23 14 22 15 6 7 11 16 29 39 21 26 39 39 35 29 23 23 21 25 17 30 37 59 62 64 66
16 14 23 40 38 33 8 5 22 29 30 20 25 28 25 26 34 27 30 26 16 7 10 10 7 15 29 36 19 28 41 39 37 42 30 40 30 19 21 41 33 53 62 61 65
19 21 20 17 23 20 21 25 18 37 10 42 39 22 24 33 47 51 50 45 32 28 13 14 10 9 11 10 14 10 34 42 29 34 35 39 19 12 18 16 18 47 55 62 64
Wind_Direction_850mb
337 335 333 332 328 327 326 324 322 322 317 310 308 310 306 293 282 277 268 263 258 245 235 234 245 218 197 229 227 232 229 254 252 253 264 297 312 326 309 303 302 315 319 319 308
338 336 334 333 332 330 326 322 321 316 315 313 310 306 304 303 289 279 273 271 261 240 237 225 228 233 226 222 218 225 225 228 243 259 274 289 309 293 305 308 315 296 306 290 299
351 347 344 339 336 335 332 328 323 319 314 310 308 305 305 306 307 287 282 272 254 236 232 235 236 236 231 231 222 229 239 242 253 258 271 283 292 295 296 295 287 293 233 280 269
352 349 346 343 339 336 333 331 328 324 318 314 310 304 299 296 257 161 117 332 317 227 222 227 231 255 258 229 230 240 236 238 249 256 269 274 282 284 286 282 295 297 295 292 277
354 352 349 346 343 339 333 328 324 321 319 315 310 307 304 259 241 222 306 315 325 226 212 219 230 240 252 263 235 235 243 244 247 249 254 264 265 266 269 279 284 283 287 288 289
356 351 347 345 341 336 330 325 322 316 312 310 307 302 293 260 278 242 258 261 262 245 223 221 231 236 272 258 251 262 251 246 245 248 254 257 263 265 260 266 281 283 285 291 285
354 350 346 343 339 334 327 319 314 309 307 307 301 292 268 257 284 254 231 231 204 222 240 235 240 226 211 250 258 266 272 277 255 245 250 263 271 259 272 277 281 282 289 286 276
353 349 345 343 341 337 328 320 311 297 292 299 302 278 256 313 309 277 235 249 240 231 241 237 249 275 268 264 263 264 275 258 258 258 256 255 262 270 270 273 279 282 276 273 269
353 349 344 343 337 337 332 331 334 297 279 290 294 268 267 326 266 304 261 242 242 244 256 254 259 265 278 255 262 231 238 250 255 241 247 237 267 269 269 262 258 259 262 264 264
350 346 342 341 336 337 344 352 356 304 307 291 288 271 267 243 309 258 260 228 238 244 251 230 232 234 237 225 220 216 223 234 246 242 237 238 250 263 264 261 256 261 259 257 264
343 343 346 344 340 347 351 1 9 358 344 293 277 229 273 274 304 289 236 258 267 232 226 248 218 219 222 220 239 260 236 245 247 237 257 254 260 269 265 258 264 275 268 273 258
345 348 341 341 342 357 348 341 353 320 296 285 275 270 264 266 279 280 277 284 268 237 224 233 229 231 242 236 235 246 264 261 271 249 251 257 254 255 253 256 253 253 255 264 266
345 344 339 350 349 359 343 345 337 334 309 302 291 262 268 243 253 258 253 250 248 251 244 233 247 228 238 232 237 229 240 254 258 287 284 298 292 278 281 274 264 256 260 264 250
346 344 342 353 14 359 352 337 333 339 308 319 352 1 343 238 252 260 255 232 226 239 244 260 255 241 250 230 233 242 233 239 254 252 257 248 271 265 269 266 261 267 267 265 263
348 343 354 351 337 347 330 332 329 345 311 338 288 344 338 4 330 329 289 233 223 226 217 242 274 257 250 249 227 250 236 251 241 241 258 252 262 267 211 238 270 267 255 259 264
348 346 357 13 355 345 325 339 321 38 311 303 315 327 335 334 330 308 330 306 241 229 254 262 247 252 264 275 240 262 242 251 259 258 260 238 233 266 243 248 243 257 265 269 269
344 347 354 347 353 326 6 359 359 75 302 350 351 360 355 358 333 329 286 234 283 227 233 254 267 248 251 266 269 258 225 245 237 233 239 218 235 239 259 222 239 245 255 270 266
338 322 347 331 354 333 353 357 11 328 334 330 340 13 355 4 334 327 322 316 189 236 300 268 276 272 257 234 263 252 230 217 214 219 251 262 243 238 242 245 243 254 258 210 137
338 344 316 333 312 351 6 351 346 348 284 331 327 335 339 354 339 353 335 322 305 87 319 14 257 282 302 302 231 252 251 230 252 279 245 244 236 264 259 257 252 220 180 129 131
328 313 272 237 329 18 51 256 302 328 343 14 323 330 349 326 333 353 320 283 333 113 177 297 290 274 286 313 301 258 251 241 221 234 255 243 243 253 274 249 228 192 136 133 136
336 288 185 264 5 324 127 269 317 344 317 211 273 329 339 337 331 322 270 329 9 337 348 345 263 272 290 246 272 290 242 243 278 210 235 254 268 254 245 213 193 157 142 137 139
10 297 225 329 248 182 273 316 317 325 350 335 323 333 358 284 312 316 341 240 303 296 306 32 292 290 285 276 268 272 283 239 225 228 238 215 265 249 109 146 135 144 143 141 146
337 282 261 293 287 277 294 329 324 335 325 312 338 318 1 335 342 315 327 237 247 272 275 35 308 302 285 232 226 248 268 247 236 241 223 237 242 304 295 158 137 141 138 138 142
334 317 354 323 351 336 329 313 323 317 322 341 321 317 309 302 287 261 268 305 232 269 284 151 257 250 277 301 312 291 316 325 262 237 229 227 259 282 270 209 131 138 140 143 145
322 336 3 319 329 308 321 286 316 327 338 325 302 323 318 315 303 301 314 278 264 155 103 130 257 252 274 283 279 266 284 299 304 261 230 233 263 224 268 140 138 140 139 143 142
340 339 325 299 308 305 48 293 303 318 329 312 317 332 330 294 292 320 308 304 285 203 160 203 256 268 286 275 194 251 268 281 278 281 267 247 245 289 258 130 132 142 142 144 149
321 322 320 285 308 323 327 346 298 309 306 315 310 342 302 297 310 301 289 276 270 267 251 201 237 323 289 182 163 298 256 264 261 274 276 243 196 228 96 73 139 140 145 149 153